Terminal Aerodrome Forecast
Issued by NWS

Home | Current Version | Previous Version | Text Only | Print | Product List | Glossary On
Versions: 1 2 3 4 5 6 7 8 9 10 11 12 13 14 15 16 17 18 19 20 21 22 23 24 25 26 27 28 29 30 31 32 33 34 35 36 37 38 39 40 41 42 43 44 45 46 47 48 49 50
495
FTUS41 KCTP 062143 AAD
TAFAOO
TAF AMD
KAOO 062143Z 0622/0718 12005KT 6SM -RA BR BKN013 BKN045 OVC060
     FM070100 14005KT 3SM -PLRASN OVC009
     FM070700 26006KT 4SM -RASN OVC015
     FM071200 28009KT P6SM OVC050
     FM071500 28008KT P6SM OVC250=

USA.gov is the U.S. government's official web portal to all federal, state and local government web resources and services.